Weather History for Hondo, TX

Change the Weather History Date:

Monday, January 7, 2013

  Actual Average Record
Temperature  
Mean Temperature 42 °F -  
Max Temperature 55 °F 61 °F 80 °F (2008)
Min Temperature 30 °F 37 °F 17 °F (2014)
Degree Days  
Heating Degree Days 22    
Moisture  
Dew Point 33 °F    
Average Humidity 67    
Maximum Humidity 82    
Minimum Humidity 44    
Precipitation  
Precipitation 0.00 in - - ()
Sea Level Pressure  
Sea Level Pressure 30.19 in    
Wind  
Wind Speed 6 mph (ENE)    
Max Wind Speed 12 mph    
Max Gust Speed -    
Visibility 10 miles    
Events      
Averages and records for this station are not official NWS values.
T = Trace of Precipitation, MM = Missing Value Source: NWS Daily Summary

Daily Weather History Graph

Daily Weather History Graph

Search for Another Location

Airport:

Trip Planner

Search our weather history database for the weather conditions in past years. The results will help you decide how hot, cold, wet, or windy it might be!

Date:

Astronomy

Jan. 07, 2013 Rise Set
Actual Time 7:32 AM CST 5:54 PM CST
Civil Twilight 7:06 AM CST 6:20 PM CST
Nautical Twilight 6:36 AM CST 6:49 PM CST
Astronomical Twilight 6:07 AM CST 7:18 PM CST
Moon 3:02 AM CST (1/7) 2:02 PM CST (1/7)
Length of Visible Light 11h 13m
Length of Day
10h 22m
Waning Crescent, 22% of the Moon is Illuminated
Jan 7
Waning Crescent
Jan 11
New
Jan 18
First Quarter
Jan 26
Full
Feb 3
Last Quarter

Hourly Weather History & Observations

Time (CST) Temp. Windchill Dew Point Humidity Pressure Visibility Wind Dir Wind Speed Gust Speed Precip Events Conditions
12:51 AM 30.9 °F 27.5 °F 26.1 °F 82% 30.31 in 10.0 mi NNE 3.5 mph - N/A   Clear
1:51 AM 30.2 °F 24.3 °F 24.8 °F 80% 30.31 in 10.0 mi NNE 5.8 mph - N/A   Clear
2:51 AM 30.0 °F 25.2 °F 25.0 °F 82% 30.30 in 10.0 mi NNE 4.6 mph - N/A   Clear
3:51 AM 33.1 °F 26.9 °F 28.0 °F 82% 30.27 in 10.0 mi NE 6.9 mph - N/A   Clear
4:51 AM 32.0 °F 25.6 °F 27.0 °F 82% 30.27 in 10.0 mi NE 6.9 mph - N/A   Clear
5:51 AM 33.1 °F 26.1 °F 28.0 °F 82% 30.27 in 10.0 mi NE 8.1 mph - N/A   Clear
6:51 AM 33.1 °F 27.7 °F 28.0 °F 82% 30.26 in 10.0 mi NE 5.8 mph - N/A   Clear
7:51 AM 34.0 °F 28.0 °F 28.9 °F 82% 30.27 in 10.0 mi NE 6.9 mph - N/A   Clear
8:51 AM 39.0 °F 34.0 °F 32.0 °F 76% 30.29 in 10.0 mi NNE 6.9 mph - N/A   Clear
9:51 AM 44.6 °F 39.7 °F 32.0 °F 61% 30.29 in 10.0 mi ENE 9.2 mph - N/A   Clear
10:51 AM 48.9 °F - 34.0 °F 56% 30.29 in 10.0 mi East 8.1 mph - N/A   Clear
11:51 AM 53.1 °F - 37.0 °F 55% 30.25 in 10.0 mi SE 8.1 mph - N/A   Clear
12:51 PM 53.1 °F - 34.0 °F 48% 30.18 in 10.0 mi East 10.4 mph - N/A   Partly Cloudy
1:51 PM 54.0 °F - 34.0 °F 47% 30.13 in 10.0 mi East 11.5 mph - N/A   Clear
2:51 PM 55.9 °F - 34.0 °F 44% 30.14 in 10.0 mi East 8.1 mph - N/A   Mostly Cloudy
3:51 PM 55.0 °F - 35.1 °F 47% 30.13 in 10.0 mi ESE 8.1 mph - N/A   Clear
4:51 PM 55.0 °F - 36.0 °F 49% 30.10 in 10.0 mi East 9.2 mph - N/A   Clear
5:51 PM 52.0 °F - 37.0 °F 57% 30.12 in 10.0 mi East 3.5 mph - N/A   Partly Cloudy
6:51 PM 48.0 °F - 37.0 °F 66% 30.10 in 10.0 mi East 5.8 mph - N/A   Clear
7:51 PM 45.0 °F 42.6 °F 36.0 °F 71% 30.11 in 10.0 mi NE 4.6 mph - N/A   Mostly Cloudy
8:51 PM 44.1 °F 41.5 °F 36.0 °F 73% 30.10 in 10.0 mi NE 4.6 mph - N/A   Partly Cloudy
9:51 PM 48.9 °F - 37.9 °F 66% 30.06 in 10.0 mi ENE 9.2 mph - N/A   Overcast
10:51 PM 50.0 °F - 39.9 °F 68% 30.05 in 10.0 mi ENE 6.9 mph - N/A   Overcast
11:13 PM 51.8 °F - 39.2 °F 62% 30.06 in 10.0 mi East 6.9 mph - N/A   Overcast
11:51 PM 50.0 °F - 42.1 °F 74% 30.03 in 8.0 mi ENE 4.6 mph - N/A   Overcast